Tracking 20083 objects as of 12-Dec-2019
HD Live streaming from Space Station
objects crossing your sky now

RADUGA 4

Track RADUGA 4 now!
RADUGA 4 is classified as:


NORAD ID: 10987
Int'l Code: 1978-073A
Perigee: 35,757.1 km
Apogee: 35,860.7 km
Inclination: 10.5 °
Period: 1,436.9 minutes
Semi major axis: 42179 km
RCS: 1 m2 (large)
Launch date: July 18, 1978
Source: Commonwealth of Independent States (former USSR) (CIS)
Launch site: TYURATAM MISSILE AND SPACE COMPLEX (TTMTR)
aabbcc
Your satellite tracking list
Your tracking list is empty




NASA's NSSDC Master Catalog

Two Line Element Set (TLE):
1 10987U 78073A   19345.74334731  .00000134  00000-0  00000+0 0  9991
2 10987  10.5180 308.0961 0012286 336.1121 112.8562  1.00217669 95725
Source of the keplerian elements: AFSPC